Погода в Акъяре

Погода в Акъяре : погода сейчас, прогноз погоды и архив. Всё, что Вы хотите узнать о погоде в Акъяре!

Поиск расширенной информации на нашем сайте:

Другие новости

Новости СМИ2

Главная страница сайта

Новости сайта

03.07.2017

Напоминаем, что на нашем специализированном сайте Метеоцентр.Азия вы можете получить высокодетализированные автоматические прогнозы погоды по пунктам России, СНГ и мира в авиационном формате (включающие направление и скорость ветра, видимость, явления погоды, количество и форму облачности, нижнюю и верхнюю границу облачности).


Погода в Акъяре - сегодня

Время (UTC), дата Ветер
(°,м/с) 
Видим.   Явления Облачность Т
(°С)
Тd
(°С)
f(%) Тe
(°С)
Pmin
(гПа)
dP
(гПа)
Po
(мм)
O2
(г/м3)
Тmin Tmax R s Состояние
почвы
21 20.10.17 270 (З) 20000 м    ясно 
-0.3 -2.8 83 -2  1014.3  -0.3  729  294           
00 21.10.17 260 (З) 20000 м    9/4 600 м верхняя 
[Sc|Cs]
-1.3 -3.2 87 -2  1014.5  -0.1  729  296           
03 21.10.17 270 (З) 20000 м    9/9 600 м кучево-дожд., средняя 
[Cb cap|Ac As]
+0.1 -2.2 84 -1  1014.5  0.1  729  294  -1.5        влажная 
06 21.10.17 300 (СЗ) 20000 м    9/9 600 м кучево-дожд. 
[Cb cap]
+1.8 -4.7 62 1014.6  0.4  730  292           
09 21.10.17 300 (СЗ) 20000 м  слаб. ливневой снег  10/10 600 м кучево-дожд. 
[Cb cap]
+2.2 -4.3 62 +1  1013.9  -0.6  729  292           
12 21.10.17 270 (З) 20000 м  {ливн. осадки}  9/8 600 м кучево-дожд., верхняя 
[Cb cap|Cc]
+3 -4.4 58 +2  1013.5  -0.3  729  291           
15 21.10.17 280 (З) 20000 м  слаб. ливневой снег  10/10 600 м кучево-дожд. 
[Cb cap]
+0.6 -3.9 72 +1  1014.7  0.8  729  294    +3.2  0.0     
18 21.10.17 260 (З) 20000 м  {ливн. осадки}  10/10 600 м кучево-дожд. 
[Cb cap]
-0.2 -2.7 83 1015.1  0.3  730  294           
21 21.10.17 300 (СЗ) 20000 м    10/10 600 м кучево-дожд. 
[Cb cap]
-1.4 -3.7 84 -1  1016.1  0.8  730  296           
00 22.10.17 250 (З) 20000 м    3/3 600 м 
[Sc]
-4 -5.9 87 -4  1017.3  0.7  731  299           
03 22.10.17 тихо ()   20000 м    9/6 600 м средняя, верхняя 
[Sc|Ac trans|Cc]
-4.8 -6.8 86 -5  1018.1  0.6  731  301  -5    0.0    замёрзшая 
06 22.10.17 310 (СЗ) 20000 м    8/3 600 м верхняя 
[Sc|Cc]
+0.8 -7.7 53 +1  1017.9  0.7  732  295           
09 22.10.17 240 (ЮЗ) 20000 м    9/4 600 м кучево-дожд., средняя, верхняя 
[Cb cap|Ac trans|Cs]
+3.5 -8.9 40 +2  1016.9  -0.6  731  292           
12 22.10.17 160 (Ю) 20000 м    9/8 600 м кучево-дожд., средняя, верхняя 
[Cb cap|Ac trans|Cs]
+2.8 -8.9 42 +4  1016.4  -0.6  731  292           
15 22.10.17 060 (СВ) 20000 м    10/8 600 м средняя 
[Sc|Ac As]
+0.5 -6.3 60 1016.6  -0.2  731  295    +4.1       
18 22.10.17 050 (СВ) 20000 м  слаб. снег  10/6 600 м средняя 
[Sc|Ac As]
-0.2 -6.2 64 -2  1015.8  -0.9  730  295           
21 22.10.17 050 (СВ) 2000 м  снег  10/8 600 м средняя 
[Sc|Ac As]
-2.1 -3.7 89 -4  1014.4  -1.5  729  296           
00 23.10.17 040 (СВ) 5{10}  1000 м  сильн. снег  10/10 600 м 
[Ns]
-2.8 -4.4 89 -6  1012.4  -2  727  297           
03 23.10.17 030 (СВ) 6-12{12}  0500 м  сильн. снег  10/10 600 м 
[Ns]
-2.9 -4.5 89 -7  1010.5  -1.9  726  296  -3    равномерный
сухой снег
100% 
06 23.10.17 030 (СВ) 5-10{12}  2000 м  снег  10/0 средняя 
[As op]
-1.8 -3.9 86 -5  1009.6  -0.6  726  295           
09 23.10.17 010 (С) 5{12}  2000 м  снег  10/6 300 м средняя 
[Sc|As op]
-0.6 -3.5 81 -4  1009.7  0.3  726  293           
12 23.10.17 350 (С) 4{10}  4000 м  слаб. снег  9/8 300 м средняя 
[Sc|As trans]
-0.7 -3.4 82 -3  1011.6  1.8  727  294           
15 23.10.17 360 (С) 20000 м  {снег}  8/8 600 м 
[Sc]
-2.4 -5.4 80 -4  1014.5  2.4  729  297    -0.2     
18 23.10.17 320 (СЗ) 20000 м  {снег}  5/5 600 м 
[Sc]
-7.4 -9.3 86 -9  1016.3  730  303           
21 23.10.17 250 (З) 4000 м  слаб. снег  10/9 600 м средняя 
[Sc|As op]
-4.7 -6.4 88 -4  1016.6  0.7  730  300           
Время (UTC), дата Ветер
(°,м/с) 
Видим.   Явления Облачность Т
(°С)
Тd
(°С)
f(%) Тe
(°С)
Pmin
(гПа)
dP
(гПа)
Po
(мм)
O2
(г/м3)
Тmin Tmax R s Состояние
почвы

Для получения пояснительной информации подведите курсор к названию столбца.

ПОГОДА в Акъяре - архив

Всё, что Вы хотите узнать о погоде в Акъяре - удобно и подробно!

Выберите нужную дату (начиная с 1 января 2015* года) и нажмите кнопку "Найти".
Будут отображены архивные сводки погоды по пункту Акъяр, начиная с указанной даты.


Отображать данные в формате CSV (для использования в таблицах Excel)


Внимание! Наш архив погоды предназначен исключительно для личного некоммерческого использования в познавательных целях. Если Вам необходимы официальные справки о состоянии погоды (для производственных, юридических, коммерческих и т.п. целей), обращайтесь в органы Росгидромета.

*Примечание: данная дата относится к архиву по метеостанциям СССР (Россия, СНГ, Балтия).
Архив по метеостанциям Зарубежной Европы и Азии (кроме Китая) хранится 10 дней, по другим регионам земного шара (Китай, Африка, Америка, Австралия, Океания) - 1 день.

Акъяр - район местоположения метеостанции


Название, широта, долгота, высота метеостанции:
Акъяр 51.9°ш. 58.2°д. 341 м над ур. моря [Российская Федерация]

Дополнительная информация

В oтличие oт бoльшинства пoгoдных сайтoв мы публикуем пoдрoбную метеoинфoрмацию в детальнoм прoфессиoнальнoм фoрмате.

Характеристики температуры и влажнoсти вoздуха измеряются на высoте 2 м в тени вдали oт зданий и деревьев.
Скoрoсть ветра измеряется на высoте 10 м (на урoвне рoста челoвека скoрoсть ветра ниже в 1.5-2 раза). Если метеoстанция нахoдится в гoрoде или в лесу, тo скoрoсть ветра занижена на 2-4 м/с пo сравнению с oткрытым местoм. Скoрoсть ветра над акватoриями крупных рек и oзёр, а также на вершинах хoлмoв на 2-5 м/с выше, чем в oбычных услoвиях.
Атмoсфернoе давление в разных тoчках местнoсти мoжет значительнo oтличаться oт давления на метеoстанции, в зависимoсти oт услoвий рельефа (при пoдъёме на 10 м давление пoнижается примернo на 1 мм рт.ст.).